Regional Weather Roundup
Issued by NWS Mobile, AL

Home | Current Version | Previous Version | Text Only | Print | Product List | Glossary On
Versions: 1 2 3 4 5 6 7 8 9 10 11 12 13 14 15 16 17 18 19 20 21 22 23 24 25 26 27 28 29 30 31 32 33 34 35 36 37 38 39 40 41 42 43 44 45 46 47 48 49 50
000
ASUS44 KMOB 230016
RWRMOB
REGIONAL WEATHER ROUNDUP
NATIONAL WEATHER SERVICE MOBILE AL
700 PM CDT FRI MAY 22 2015

ALZ061>064-230100-
COASTAL ALABAMA


CITY           SKY/WX    TMP DP  RH WIND       PRES   REMARKS
MOBILE REG APT PTCLDY    79  61  53 NE7       30.15F
6HR MIN TEMP:  77; 6HR MAX TEMP:  84;

BROOKLEY FIELD PTCLDY    80  59  48 NE8       30.15F
6HR MIN TEMP:  76; 6HR MAX TEMP:  82;

GULF SHORES    CLEAR     77  66  69 CALM      30.14S
6HR MIN TEMP:  77; 6HR MAX TEMP:  83;


$$

ALZ051>060-230100-
INTERIOR SOUTHWEST AND SOUTH CENTRAL ALABAMA


CITY           SKY/WX    TMP DP  RH WIND       PRES   REMARKS
ANDALUSIA/OPP  CLEAR     81  52  36 NE3       30.16S
6HR MIN TEMP:  80; 6HR MAX TEMP:  86;

EVERGREEN      CLEAR     78  57  48 NE5       30.17S
6HR MIN TEMP:  75; 6HR MAX TEMP:  82;

FLORALA        CLEAR     76  54  46 CALM      30.18R
6HR MIN TEMP:  76; 6HR MAX TEMP:  82;

GREENVILLE     FAIR      76  52  43 NE3       30.17S
6HR MIN TEMP:  74; 6HR MAX TEMP:  80;


$$

FLZ001>006-230100-
WESTERN FLORIDA PANHANDLE


CITY           SKY/WX    TMP DP  RH WIND       PRES   REMARKS
CRESTVIEW      CLEAR     81  55  40 NE5       30.16S
6HR MIN TEMP:  80; 6HR MAX TEMP:  85;

DESTIN         CLEAR     81  61  50 W3        30.13S
6HR MIN TEMP:  81; 6HR MAX TEMP:  88;

DUKE FIELD     PTCLDY    81  56  42 NE2       30.13S
6HR MIN TEMP:  78; 6HR MAX TEMP:  84;

MARY ESTHER    CLEAR     79  61  53 CALM      30.13R
6HR MIN TEMP:  79; 6HR MAX TEMP:  85; 6HR PCP: TRACE;

MILTON         PTCLDY    80  56  43 N5        30.15R
PENSACOLA      CLEAR     81  58  45 N9        30.14R
6HR MIN TEMP:  78; 6HR MAX TEMP:  85;

NAS PENSACOLA  PTCLDY    78  63  59 SW6       30.13S
6HR MIN TEMP:  78; 6HR MAX TEMP:  86;

VALPARAISO     PTCLDY    83  58  43 N7        30.14R
6HR MIN TEMP:  82; 6HR MAX TEMP:  88;


$$

...MARINE OBSERVATIONS...

STATION/POSITION TIME  SKY/WX   TEMP    WIND        PRES    VSBY
                                AIR SEA DIR/SP/G
                 (UTC)          (F)     (DEG/KT/KT) (MB)    (MI)
PASCAGOULA       2300            78     140/  2/  3 1020.6F
PETIT BOIS ISL   2300            78     180/  3/  4 1021.2F
E DAUPHIN ISLAND 0000            80      10/  5/  5 1020.3F
MIDDLE BAY LIGHT 2300            80     350/ 12     1020.0S
USCG MOBILE BAY  2300            79 78   30/  8/ 10 1019.9S
STATE DOCKS      2300            81 79              1020.8S
MEAHER PARK      0000            79     360/  5     1020.3S
FORT MORGAN      2300            81     360/  3/  4 1020.4R
12 S ORANGE BCH  2350            78 81  240/  2/  6 1020.2R
WVE H/P(F/S)=  1

PENSACOLA BAY    2300            86 83  250/  3/  5 1020.6R
64 S DAUPHIN ISL 2350            77 82   80/  8/ 10 1020.6S
WVE H/P(F/S)=  2/ 5

67 S FORT MORGAN 2330            76     100/ 10     1020.0F
115 SE PENSACOLA 2350            77 82   30/  4/  6 1020.6S
WVE H/P(F/S)=  2/ 4

MID GULF/42001   2350            82 84   80/  6/  8 1019.2S
WVE H/P(F/S)=  1/ 4

EAST GULF/42003  2350            82 84   60/  4/  6 1019.3R
WVE H/P(F/S)=  1/ 7


$$

...NEARBY LOCATIONS

CITY           SKY/WX    TMP DP  RH WIND       PRES   REMARKS
GULFPORT       CLEAR     79  66  64 S3        30.13S
6HR MIN TEMP:  77; 6HR MAX TEMP:  84;

BILOXI         CLEAR     79  67  66 S5        30.13S
6HR MIN TEMP:  76; 6HR MAX TEMP:  82;

PASCAGOULA     PTCLDY    81  65  58 N3        30.14S
6HR MIN TEMP:  76; 6HR MAX TEMP:  85;

HATTIESBURG    CLEAR     79  60  52 N3        30.16S
6HR MIN TEMP:  74; 6HR MAX TEMP:  82;

LAUREL         CLEAR     77  55  47 E3        30.19R
6HR MIN TEMP:  72; 6HR MAX TEMP:  79;

MERIDIAN       CLEAR     74  51  44 E8        30.19R
6HR MIN TEMP:  71; 6HR MAX TEMP:  78;

MERIDIAN NAS   CLEAR     75  52  44 NE3       30.20R
6HR MIN TEMP:  70; 6HR MAX TEMP:  77;

MONTGOMERY     CLEAR     78  53  41 N5        30.18R
6HR MIN TEMP:  74; 6HR MAX TEMP:  80;

MAXWELL AFB    CLEAR     77  58  51 CALM      30.17S
6HR MIN TEMP:  73; 6HR MAX TEMP:  79;

TROY           CLEAR     76  52  43 N6        30.18R
6HR MIN TEMP:  75; 6HR MAX TEMP:  82;

FORT RUCKER    CLEAR     78  55  44 N5        30.15R
6HR MIN TEMP:  76; 6HR MAX TEMP:  83;

DALEVILLE      CLEAR     78  52  39 N6        30.16R
6HR MIN TEMP:  75; 6HR MAX TEMP:  82;

DOTHAN         CLEAR     79  53  40 N7        30.19R
6HR MIN TEMP:  75; 6HR MAX TEMP:  83;


$$

...OTHER SURROUNDING LOCATIONS...

CITY           SKY/WX    TMP DP  RH WIND       PRES   REMARKS
BIRMINGHAM     CLEAR     74  52  46 N7        30.22R
6HR MIN TEMP:  72; 6HR MAX TEMP:  78;

TUSCALOOSA     CLEAR     76  48  37 NE9       30.20R
6HR MIN TEMP:  72; 6HR MAX TEMP:  79;

COLUMBUS GA    CLEAR     80  49  33 NE6       30.16R
6HR MIN TEMP:  75; 6HR MAX TEMP:  82;

PANAMA CITY    NOT AVBL
TALLAHASSEE    PTCLDY    84  53  34 N7        30.13R
6HR MIN TEMP:  82; 6HR MAX TEMP:  88;

BATON ROUGE    PTSUNNY   79  68  69 NE5       30.13S
6HR MIN TEMP:  78; 6HR MAX TEMP:  83;

NEW ORLEANS    MOCLDY    81  65  58 E5        30.13S
6HR MIN TEMP:  77; 6HR MAX TEMP:  83;

SLIDELL        CLEAR     78  69  73 SW3       30.13S
6HR MIN TEMP:  78; 6HR MAX TEMP:  83;

JACKSON        MOSUNNY   76  55  48 NE5       30.17F
6HR MIN TEMP:  71; 6HR MAX TEMP:  78;

MCCOMB         CLOUDY    78  66  66 CALM      30.16R
6HR MIN TEMP:  73; 6HR MAX TEMP:  81;


$$

...SURROUNDING MARINE OBSERVATIONS...

STATION/POSITION TIME  SKY/WX   TEMP    WIND        PRES    VSBY
                                AIR SEA DIR/SP/G
                 (UTC)          (F)     (DEG/KT/KT) (MB)    (MI)
WAVELAND         2300            76 80  150/  4/  5 1020.7F
PASCAGOULA RGN A 2300            79     190/  2/  3 1020.3F
PASCAGOULA PORT  2300               82                N/A
GRAND ISLE       2300            79 83   70/  5/  9 1020.3F
SOUTHWEST PASS   0000            78      70/ 14/ 15 1020.3R
PILOT STATION E  2300            81 75   80/ 12/ 14 1020.6R
SHELL BEACH      2300            77 84   70/  6/ 10 1020.0F
PANAMA CITY      2300            81 83  260/  9/ 10 1019.3R
APALACHICOLA     2300            82 84  250/  5/  9 1019.4S
TYNDALL TOWER C  0000            78     280/  5/  5 1020.1R
S APLCHCLA/42036 2350            79 81   10/  6/  8 1020.1R
WVE H/P(F/S)=  1/ 4


$$



USA.gov is the U.S. government's official web portal to all federal, state and local government web resources and services.